This demonstration page uses our WeatherBlox Daily Observations layout. Learn more.

Left ArrowRight Arrow

Hourly Observations for October 7, 2022

Temp ( °F °C ) Dew Point ( °F °C ) Humidity (%) Winds ( mph kmh ) Pressure ( in mb ) Visibility ( mi km ) Precip ( " mm )
12:53 am 00:53 Mostly Cloudy 67 19.4 58 14.4 73 73 N 6 9 30.13 1020 10 16 0.00 0.00
1:53 am 01:53 Cloudy 66 18.9 57 13.9 73 73 N 6 9 30.12 1020 10 16 0.00 0.00
2:53 am 02:53 Cloudy 67 19.4 57 13.9 71 71 NNE 7 11 30.13 1020 10 16 0.00 0.00
3:53 am 03:53 Cloudy 66 18.9 57 13.9 73 73 N 5 7 30.12 1020 10 16 0.00 0.00
4:53 am 04:53 Mostly Clear 63 17.2 58 14.4 84 84 N 6 9 30.13 1020 10 16 0.00 0.00
5:53 am 05:53 Cloudy 63 17.2 58 14.4 84 84 N 6 9 30.13 1020 10 16 0.00 0.00
6:53 am 06:53 Partly Cloudy 62 16.7 58 14.4 86 86 N 8 13 30.15 1021 10 16 0.00 0.00
7:53 am 07:53 Sunny 62 16.7 58 14.4 86 86 NNE 7 11 30.17 1022 10 16 0.00 0.00
8:53 am 08:53 Sunny 64 17.8 58 14.4 80 80 NNE 7 11 30.19 1022 10 16 0.00 0.00
9:53 am 09:53 Mostly Sunny 67 19.4 56 13.3 68 68 NE 10 17 30.20 1023 10 16 0.00 0.00
10:53 am 10:53 Partly Cloudy 73 22.8 55 12.8 53 53 E 7 11 30.20 1023 10 16 0.00 0.00
11:53 am 11:53 Mostly Sunny 76 24.4 52 11.1 43 43 S 6 9 30.19 1022 10 16 0.00 0.00
12:53 pm 12:53 Mostly Sunny 77 25 52 11.1 42 42 SSE 5 7 30.18 1022 10 16 0.00 0.00
1:53 pm 13:53 Mostly Sunny 79 26.1 51 10.6 38 38 S 9 15 30.15 1021 10 16 0.00 0.00
2:53 pm 14:53 Mostly Sunny 78 25.6 51 10.6 39 39 SSE 8 13 30.12 1020 10 16 0.00 0.00
3:53 pm 15:53 Mostly Sunny 80 26.7 48 8.9 33 33 SSE 9 15 30.09 1019 10 16 0.00 0.00
4:53 pm 16:53 Mostly Sunny 79 26.1 48 8.9 34 34 S 13 20 30.09 1019 10 16 0.00 0.00
5:53 pm 17:53 Partly Cloudy 77 25 49 9.4 37 37 SSE 10 17 30.09 1019 10 16 0.00 0.00
6:53 pm 18:53 Sunny 76 24.4 50 10 40 40 SE 3 6 30.10 1019 10 16 0.00 0.00
7:53 pm 19:53 Partly Cloudy 72 22.2 52 11.1 49 49 NE 17 28 30.13 1020 10 16 0.00 0.00
8:53 pm 20:53 Partly Cloudy 69 20.6 55 12.8 61 61 ENE 17 28 30.16 1021 10 16 0.00 0.00
9:53 pm 21:53 Cloudy 67 19.4 54 12.2 63 63 ENE 22 35 30.18 1022 10 16 0.00 0.00
10:53 pm 22:53 Cloudy with Light Rain 63 17.2 57 13.9 81 81 ENE 15 24 30.22 1023 6 10 0.02 0.51
11:53 pm 23:53 Mostly Cloudy 62 16.7 58 14.4 86 86 NE 12 19 30.23 1024 10 16 0.01 0.13

Powered by AerisWeather